Weather in Roslavl

Russia / Smolensk Oblast     53°56′50″N   32°51′24″E
temp.,
°C
wind,
m/s
gust,
m/s
humid.,
%
clouds,
%
prec.,
mm/h
press.,
hPa
HPBL,
m
17 september, fri
fri1700:00+3ese3584100 0.0 102196
03:00+5ese2475100 0.0 1020146
06:00+5e2574100 0.0 1019210
09:00+5ese3784100 0.6 1018319
12:00+5ese4893100 1.5 1018391
15:00+6e4993100 2.3 1017427
18:00+6e51193100 1.7 1017467
21:00+7e61390100 2.0 1016600
18 september, sat
sat1800:00+7e71582100 0.1 1017669
03:00+6e71577100 0.1 1016651
06:00+6e81674100 0.1 1015659
09:00+5e91889100 1.7 1015674
12:00+6e91793100 4.6 1015747
15:00+6e91894100 8.2 1014814
18:00+6e91994100 2.1 1013825
21:00+7e101995100 7.4 1013920
19 september, sun
sun1900:00+7e81795100 4.6 10121010
03:00+8e71595100 5.4 1012898
06:00+7e71496100 0.8 1012709
09:00+6e71396100 6.9 1012646
12:00+6e61296100 3.4 1012633
15:00+7e61195100 3.9 1012664
18:00+6ene61296100 0.2 1011657
21:00+6ene61296100 1.3 1011638
20 september, mon
mon2000:00+6ene61296100 0.8 1011665
03:00+6ene71296100 0.9 1010683
06:00+6ene71396100 1.1 1009719
09:00+5ne71496100 6.1 1009731
12:00+5ne71595100 6.1 1009799
15:00+5ne71494100 8.3 1009833
18:00+5ene71395100 1.2 1009699
21:00+5ne61296100 2.5 1010609
21 september, tue
tue2100:00+5ne51096100 0.6 1010584
03:00+5ne4897100 0.9 1010487
06:00+5nne3797100 0.7 1010426
09:00+4n3697100 1.6 1010341
12:00+4nnw3497100 1.1 1011240
15:00+4wnw3498100 1.7 1011255
18:00+4w3598100 0.4 1011245
21:00+4n4698100 0.9 1012378